This is the latest recevied weather packets stored in our database for station/object OE9FWV-10. If no packets are shown the sender has not sent any weather packets the latest 10 day(s).
| Time | Temp. | Humidity | Pressure | Rain* | Wind** | Luminosity | Snow |
|---|---|---|---|---|---|---|---|
| 1787659933 | 29.44° C | 31% | 1017.9 hPa | - | - | - | - |
| 1787659033 | 30° C | 31% | 1017.8 hPa | - | - | - | - |
| 1787658132 | 29.44° C | 31% | 1017.9 hPa | - | - | - | - |
| 1787657231 | 30° C | 31% | 1018 hPa | - | - | - | - |
| 1787656331 | 28.89° C | 31% | 1018.2 hPa | - | - | - | - |
| 1787655429 | 28.89° C | 32% | 1018.1 hPa | - | - | - | - |
| 1787654529 | 28.33° C | 32% | 1018.2 hPa | - | - | - | - |
| 1787653628 | 28.89° C | 32% | 1018.2 hPa | - | - | - | - |
| 1787652728 | 28.33° C | 32% | 1018.3 hPa | - | - | - | - |
| 1787651827 | 28.33° C | 32% | 1018.4 hPa | - | - | - | - |
| 1787650927 | 28.33° C | 32% | 1018.5 hPa | - | - | - | - |
| 1787650025 | 27.78° C | 33% | 1018.2 hPa | - | - | - | - |
| 1787649125 | 27.78° C | 33% | 1018.2 hPa | - | - | - | - |
| 1787648224 | 27.22° C | 33% | 1018.2 hPa | - | - | - | - |
| 1787647324 | 27.78° C | 33% | 1018 hPa | - | - | - | - |
| 1787646423 | 26.67° C | 34% | 1018.1 hPa | - | - | - | - |
| 1787645522 | 27.78° C | 32% | 1017.9 hPa | - | - | - | - |
| 1787642812 | 27.22° C | 35% | 1017.4 hPa | - | - | - | - |
| 1787641905 | 27.22° C | 34% | 1017.4 hPa | - | - | - | - |
| 1787641005 | 26.67° C | 35% | 1017.2 hPa | - | - | - | - |
| 1787640105 | 27.22° C | 35% | 1017 hPa | - | - | - | - |
| 1787639203 | 26.11° C | 35% | 1016.9 hPa | - | - | - | - |
| 1787638303 | 26.67° C | 35% | 1016.7 hPa | - | - | - | - |
| 1787637402 | 26.67° C | 35% | 1016.5 hPa | - | - | - | - |
| 1787636697 | 26.67° C | 36% | 1016.4 hPa | - | - | - | - |
* Rain since midnight (hover to see other rain measurements)
** Current wind speed in m/s (hover to see current wind gust speed)